Weather History for Manhattan, KS

Change the Weather History Date:

Tuesday, November 20, 2012

  Actual Average Record
Temperature  
Mean Temperature 48 °F 40 °F  
Max Temperature 67 °F 53 °F 69 °F (2007)
Min Temperature 29 °F 28 °F 14 °F (2000)
Degree Days  
Heating Degree Days 17 25  
Month to date heating degree days 300 405  
Since 1 July heating degree days 717 804  
Cooling Degree Days 0 0  
Month to date cooling degree days 3 0  
Year to date cooling degree days 1788 1361  
Moisture  
Dew Point 34 °F    
Average Humidity 66    
Maximum Humidity 100    
Minimum Humidity 32    
Precipitation  
Precipitation 0.00 in 0.05 in 0.00 in (2014)
Month to date precipitation 0.74 1.22  
Year to date precipitation 21.46 31.15  
Sea Level Pressure  
Sea Level Pressure 30.21 in    
Wind  
Wind Speed 1 mph (SW)    
Max Wind Speed 8 mph    
Max Gust Speed 10 mph    
Visibility 10 miles    
Events      
T = Trace of Precipitation, MM = Missing Value Source: NWS Daily Summary

Daily Weather History Graph

Daily Weather History Graph

Search for Another Location

Airport:

Trip Planner

Search our weather history database for the weather conditions in past years. The results will help you decide how hot, cold, wet, or windy it might be!

Date:

Astronomy

Nov. 20, 2012 Rise Set
Actual Time 7:16 AM CST 5:08 PM CST
Civil Twilight 6:47 AM CST 5:37 PM CST
Nautical Twilight 6:14 AM CST 6:10 PM CST
Astronomical Twilight 5:42 AM CST 6:42 PM CST
Moon 12:52 PM CST (11/20) No Moon Set
Length of Visible Light 10h 50m
Length of Day
9h 52m
First Quarter, 51% of the Moon is Illuminated
Nov 20
First Quarter
Nov 28
Full
Dec 6
Last Quarter
Dec 13
New
Dec 19
First Quarter

Hourly Weather History & Observations

Time (CST) Temp. Windchill Dew Point Humidity Pressure Visibility Wind Dir Wind Speed Gust Speed Precip Events Conditions
12:52 AM 35.1 °F - 32.0 °F 89% 30.17 in 10.0 mi Calm Calm - N/A   Clear
1:52 AM 35.6 °F - 33.8 °F 93% 30.16 in 10.0 mi Calm Calm - N/A   Clear
2:52 AM 32.0 °F - 30.0 °F 92% 30.19 in 10.0 mi Calm Calm - N/A   Clear
3:52 AM 33.1 °F - 30.9 °F 92% 30.18 in 9.0 mi Calm Calm - N/A   Clear
4:52 AM 30.9 °F - 30.0 °F 96% 30.20 in 8.0 mi Calm Calm - N/A   Clear
5:52 AM 32.0 °F - 30.9 °F 96% 30.22 in 8.0 mi Calm Calm - N/A   Clear
6:52 AM 30.9 °F - 30.0 °F 96% 30.23 in 10.0 mi Calm Calm - N/A   Clear
7:52 AM 33.1 °F - 30.9 °F 92% 30.26 in 10.0 mi Calm Calm - N/A   Clear
8:52 AM 39.9 °F 37.8 °F 36.0 °F 86% 30.27 in 10.0 mi SSW 3.5 mph - N/A   Clear
9:52 AM 46.9 °F - 37.0 °F 68% 30.26 in 10.0 mi Calm Calm - N/A   Clear
10:52 AM 51.1 °F - 37.9 °F 61% 30.26 in 10.0 mi Calm Calm - N/A   Clear
11:52 AM 57.0 °F - 39.0 °F 51% 30.24 in 10.0 mi Calm Calm - N/A   Clear
12:52 PM 60.1 °F - 39.0 °F 46% 30.22 in 10.0 mi Calm Calm - N/A   Clear
1:52 PM 64.0 °F - 37.9 °F 38% 30.20 in 10.0 mi Variable 3.5 mph - N/A   Clear
2:52 PM 66.9 °F - 35.1 °F 31% 30.17 in 10.0 mi WSW 3.5 mph - N/A   Clear
3:52 PM 64.9 °F - 39.0 °F 39% 30.18 in 10.0 mi SSW 3.5 mph - N/A   Clear
4:52 PM 59.0 °F - 35.1 °F 41% 30.18 in 10.0 mi Calm Calm - N/A   Clear
5:52 PM 53.1 °F - 33.1 °F 47% 30.19 in 10.0 mi Calm Calm - N/A   Clear
6:52 PM 45.0 °F - 34.0 °F 65% 30.20 in 10.0 mi Calm Calm - N/A   Clear
7:52 PM 43.0 °F - 34.0 °F 71% 30.21 in 6.0 mi Calm Calm - N/A   Haze
8:52 PM 37.9 °F - 33.1 °F 83% 30.21 in 10.0 mi Calm Calm - N/A   Clear
9:52 PM 39.0 °F - 34.0 °F 82% 30.21 in 10.0 mi Calm Calm - N/A   Clear
10:52 PM 36.0 °F - 33.1 °F 89% 30.20 in 10.0 mi Calm Calm - N/A   Clear
11:52 PM 36.0 °F - 33.1 °F 89% 30.20 in 10.0 mi Calm Calm - N/A   Clear